Temperature
20 20 20 20 19 19 19 19 19 19 19 19 19 19 19 19 19 19 19 19 19 19 19 19 19 19 18 18 18 18 18 18 18 18 18 18 18 18 18 18 18 18 18
20 20 20 20 19 19 19 19 19 19 19 19 19 19 19 19 19 19 19 19 19 19 19 18 18 18 18 18 18 18 18 18 18 18 18 18 18 18 18 18 17 18 18
20 20 20 20 19 19 19 19 19 19 19 19 19 19 19 19 19 19 19 19 18 18 18 18 18 18 18 18 18 18 18 18 18 18 18 18 18 18 18 18 18 18 18
20 20 20 20 19 19 19 19 19 19 19 19 19 19 19 19 19 18 18 18 18 18 18 18 18 18 18 18 18 18 18 18 18 18 18 17 17 18 18 18 18 18 17
20 20 20 20 19 19 19 19 19 19 19 19 19 19 19 19 19 19 18 18 18 18 18 18 18 18 18 18 18 18 18 18 18 18 18 18 18 18 18 18 18 17 17
20 20 20 20 20 19 19 19 19 19 19 19 19 19 19 19 19 19 18 18 18 18 18 18 18 18 18 18 18 18 18 18 18 18 18 18 18 18 18 18 17 17 17
20 20 20 20 20 19 19 19 19 19 19 19 19 19 19 19 19 19 19 19 18 18 18 18 18 19 19 19 19 19 19 18 18 18 18 18 18 18 18 18 18 17 17
20 20 20 20 20 20 19 19 19 19 19 19 19 19 19 19 19 19 19 19 19 19 19 18 19 19 19 19 19 19 19 19 18 18 18 18 18 18 18 18 18 17 17
20 20 20 20 20 20 19 19 19 19 19 19 19 19 19 19 19 19 19 19 19 19 19 19 19 19 19 19 19 19 19 19 19 18 18 18 18 18 18 18 18 17 17
21 20 20 20 20 20 19 19 19 19 19 19 19 19 19 19 19 19 19 19 19 19 19 19 19 19 19 19 19 19 19 19 19 19 19 19 18 18 18 18 18 17 17
21 20 20 20 20 20 19 19 19 19 19 19 19 19 19 19 19 19 19 19 19 19 19 19 19 19 19 19 19 19 19 19 19 19 19 19 18 18 18 18 18 17 17
21 21 21 20 20 20 19 19 19 19 19 19 19 19 19 19 19 19 19 19 19 19 19 19 19 19 19 19 19 19 19 19 19 19 19 19 18 18 18 18 18 18 17
22 21 21 20 20 20 20 20 19 19 19 19 19 19 19 19 19 19 19 19 19 19 19 19 19 19 19 19 19 19 19 19 19 19 19 19 18 18 18 18 18 18 17
22 21 21 20 20 20 20 20 20 19 19 19 19 19 19 19 19 19 19 19 19 19 19 19 19 19 19 19 19 19 19 19 19 19 19 19 18 18 18 18 18 18 18
22 21 21 21 20 20 20 20 20 20 20 19 19 19 19 19 19 19 19 19 19 19 19 19 19 19 19 19 19 19 19 19 19 19 19 19 18 18 18 18 18 18 18
22 21 21 20 20 20 20 20 20 20 20 20 19 19 19 19 19 19 19 19 19 19 19 19 19 19 19 19 19 19 19 19 19 19 19 19 19 18 18 18 18 18 18
22 21 21 21 20 20 20 20 20 20 20 20 20 19 19 19 19 19 19 19 19 19 19 19 19 19 19 19 19 19 19 19 19 19 19 19 19 18 18 18 18 18 18
22 21 21 21 20 20 20 20 20 20 20 20 20 20 19 19 19 19 19 19 19 19 19 19 19 19 19 19 19 19 19 19 19 19 19 19 18 18 18 18 18 18 18
22 21 21 21 20 20 20 20 20 20 20 20 20 20 19 19 19 19 19 19 19 19 19 19 19 19 19 19 19 20 20 20 19 19 19 19 18 18 18 18 18 18 18
22 21 21 21 20 20 20 20 20 20 20 20 20 20 19 19 19 19 19 19 19 19 19 19 19 19 19 19 19 20 20 20 20 19 19 19 19 19 18 18 18 18 18
22 21 21 21 20 20 20 20 20 20 20 20 20 20 19 19 19 19 19 19 19 19 19 19 19 19 19 20 20 20 20 20 20 20 19 19 19 19 18 18 18 18 18
22 21 21 21 21 20 20 20 20 20 20 20 20 20 19 19 19 19 19 19 19 19 19 19 19 19 19 20 19 20 20 20 20 20 20 19 19 19 19 18 18 18 18
23 22 21 21 21 21 20 20 20 20 20 20 20 20 19 19 19 19 19 19 19 19 19 19 19 19 19 19 20 19 19 19 19 20 20 19 19 19 19 18 18 18 18
23 22 22 21 21 21 20 20 20 20 20 20 20 20 20 19 19 19 19 19 19 19 19 19 19 19 19 19 19 20 20 20 19 19 19 19 19 19 19 19 18 18 18
24 23 22 21 21 20 20 20 20 20 20 20 20 20 20 19 19 19 19 19 19 19 19 19 19 19 19 19 19 19 19 20 20 19 19 19 19 19 19 19 19 18 18
24 23 22 21 21 21 20 20 20 20 20 20 20 20 20 19 19 19 19 19 19 19 19 19 19 19 19 19 19 19 19 19 19 19 19 19 19 19 19 19 19 18 18
Wind_Speed
10 12 12 11 11 11 11 11 10 10 10 11 11 11 11 11 11 12 12 12 12 12 11 10 10 10 9 8 8 8 7 7 7 8 7 7 7 7 7 6 6 8 9
13 13 13 11 11 12 12 11 11 11 11 11 11 11 11 11 11 11 11 11 11 10 10 9 9 9 8 8 7 7 6 6 7 7 7 7 7 7 6 6 6 8 8
13 13 13 12 13 13 13 12 12 12 11 11 11 11 11 11 11 11 11 10 10 9 9 9 8 9 8 7 6 6 5 6 6 7 7 6 7 7 7 8 8 8 7
13 13 13 13 13 13 13 13 12 12 12 12 12 11 10 10 10 10 10 10 9 9 8 8 8 8 7 6 5 5 5 5 5 6 6 6 7 9 8 8 7 7 7
13 14 14 13 13 13 13 13 13 13 13 12 12 11 10 10 9 9 9 9 8 8 8 8 7 7 5 4 4 4 4 4 5 5 4 6 8 9 9 8 7 7 7
13 14 14 13 13 13 13 13 13 13 12 12 12 11 11 10 9 9 9 8 8 8 7 7 7 5 4 4 3 4 4 5 6 5 6 7 8 9 9 8 7 6 6
13 14 15 14 14 13 13 12 12 12 12 11 11 11 10 10 9 9 8 7 7 7 6 6 5 4 4 3 3 4 5 7 6 3 5 8 8 9 8 8 7 6 6
13 14 15 14 14 13 12 12 12 11 11 11 10 10 10 9 8 8 8 7 7 6 5 5 4 4 4 4 5 6 7 8 4 4 7 9 9 10 9 8 7 6 6
12 13 13 13 13 13 12 11 10 11 10 10 9 9 9 9 8 8 8 7 6 5 5 4 3 3 4 5 6 8 8 8 5 3 7 8 9 9 9 8 7 6 5
10 11 11 12 12 12 12 11 10 10 9 9 8 8 8 8 8 8 8 7 6 6 5 4 4 4 5 6 8 9 9 8 5 4 6 9 10 9 8 7 7 6 6
10 9 9 9 10 10 11 11 11 9 9 9 8 8 8 7 8 8 7 8 7 6 6 5 5 5 6 7 8 10 8 6 4 5 8 11 11 9 8 7 7 6 6
9 9 9 9 8 8 8 9 8 8 8 7 6 7 7 5 6 6 9 9 8 8 7 7 7 6 7 5 6 9 7 6 4 6 8 12 10 9 8 7 6 6 6
8 8 9 8 6 6 5 5 4 5 6 6 5 4 4 4 4 5 6 7 8 8 7 7 7 6 5 5 3 4 4 2 3 7 9 12 11 9 8 7 7 6 6
7 8 9 8 6 5 4 3 4 3 3 3 5 4 3 1 1 2 2 4 5 5 4 3 3 4 5 3 2 1 1 1 4 6 9 12 11 10 8 8 7 6 6
7 8 8 8 6 5 3 1 3 2 3 3 3 3 3 2 1 1 0 1 2 3 3 2 2 1 0 1 2 0 0 1 3 5 7 11 11 10 9 8 7 7 7
7 7 8 8 7 5 3 1 1 2 2 2 3 4 3 2 1 0 1 1 1 1 1 1 1 1 1 1 0 0 0 1 2 4 7 9 10 10 9 8 7 7 7
7 7 6 8 7 5 4 3 2 2 3 2 3 3 1 2 1 1 1 2 1 2 2 1 1 1 1 1 1 1 1 0 2 3 6 7 8 9 10 9 8 8 7
7 6 4 5 7 5 3 1 1 1 2 2 3 4 2 1 1 1 1 0 1 2 1 1 1 0 1 0 0 1 2 1 2 3 4 6 7 7 8 9 9 9 8
7 7 5 4 5 5 4 3 1 1 1 1 1 2 3 2 2 1 1 0 2 1 0 1 2 1 1 1 1 2 2 2 2 2 3 4 6 7 7 9 10 9 9
8 7 6 5 4 4 3 2 1 1 1 1 2 2 2 1 1 0 1 1 1 1 1 2 1 2 1 2 3 1 2 3 3 2 2 3 4 6 7 8 8 7 8
8 7 6 6 5 3 2 3 2 2 2 2 2 3 2 1 1 1 1 0 1 0 1 1 1 2 2 1 1 1 1 2 2 3 2 2 2 3 6 8 7 7 7
9 8 7 6 6 5 3 2 2 2 2 2 1 3 2 2 1 1 1 1 0 1 1 1 1 2 2 1 1 1 1 1 1 2 3 3 2 2 3 5 7 7 7
10 10 8 7 6 5 4 2 2 1 2 1 2 2 2 2 2 0 1 1 1 2 1 1 1 2 2 2 1 0 0 0 1 1 1 2 3 3 2 3 5 7 7
10 10 8 8 6 5 4 3 3 2 2 2 1 2 2 2 1 1 1 1 1 1 0 2 1 2 2 3 2 1 1 1 1 1 1 0 2 2 3 2 3 4 6
10 10 9 8 7 6 4 4 3 2 2 1 1 2 2 2 2 1 1 1 1 0 1 1 1 2 2 3 3 2 1 1 2 1 2 1 1 2 2 3 3 3 5
10 11 11 9 7 6 5 4 3 3 2 1 1 2 2 2 3 2 2 1 1 1 1 1 1 1 2 3 3 3 2 1 1 1 1 2 1 2 2 2 3 3 4
Wind_Direction
96 101 106 104 104 107 109 109 108 105 110 111 108 108 113 114 113 110 108 108 107 107 107 105 103 104 104 104 105 107 113 118 122 125 123 122 121 118 118 127 131 121 121
98 103 104 100 104 109 111 111 111 109 108 109 108 109 114 117 117 116 113 112 111 110 109 108 107 107 108 109 111 119 131 137 141 144 142 140 136 131 126 127 127 122 125
100 105 102 96 102 109 112 112 113 114 113 111 111 110 112 114 113 112 112 113 112 112 109 107 109 111 113 118 128 138 146 155 159 169 168 153 141 137 131 125 129 133 130
104 103 100 102 103 108 112 113 112 113 113 115 118 118 116 113 112 112 111 111 110 113 114 114 112 115 121 126 138 152 170 182 190 203 197 158 142 134 135 132 135 138 137
100 101 103 105 106 110 112 114 114 113 114 118 121 122 122 117 117 118 116 114 113 113 113 114 117 123 128 133 148 170 189 208 223 228 182 128 121 136 137 137 139 139 140
108 105 106 108 108 110 112 114 113 113 114 117 121 121 122 123 124 126 126 124 122 121 122 124 125 130 139 149 171 196 214 235 251 224 142 123 124 136 141 141 141 145 148
107 110 112 111 111 110 114 115 116 116 117 119 121 122 123 122 127 131 133 133 133 129 130 132 133 142 160 177 202 217 235 257 247 194 127 119 129 139 142 145 150 154 158
111 113 116 118 116 114 114 115 118 122 122 123 125 127 127 127 131 137 139 138 137 136 139 140 144 157 178 204 221 233 247 263 241 162 130 128 140 145 150 156 163 166 167
113 118 125 125 125 123 121 122 125 128 130 131 133 135 138 139 137 138 140 141 142 144 151 154 158 180 203 221 232 239 248 259 250 174 141 134 146 152 159 165 171 173 176
112 118 126 131 132 134 134 134 134 138 142 142 144 149 153 153 153 153 153 152 158 162 169 171 178 199 217 230 236 241 252 261 228 164 131 143 155 159 164 171 175 178 183
116 121 125 129 133 136 136 137 143 146 153 157 166 173 173 176 169 170 156 160 168 174 185 193 205 213 230 237 235 236 246 243 205 144 127 146 155 160 166 173 177 183 188
124 129 129 127 127 130 126 137 151 150 156 173 163 164 179 173 160 150 150 168 177 186 200 211 220 223 230 232 232 232 235 229 189 132 138 154 157 162 168 176 183 189 192
128 120 117 114 120 119 122 140 141 142 152 167 147 157 157 145 155 146 158 171 187 196 205 201 212 223 224 224 220 222 229 208 127 121 145 155 159 168 174 181 187 191 193
129 123 115 115 113 109 112 126 146 144 148 157 155 166 137 124 142 150 172 183 188 193 196 194 203 207 223 209 232 260 332 82 112 119 150 161 165 172 178 182 189 193 194
128 121 117 116 109 104 101 142 130 141 145 143 141 142 138 142 153 113 196 208 207 186 188 201 224 204 245 210 253 222 347 99 114 127 147 167 171 175 179 182 187 189 193
127 126 125 124 123 128 132 140 157 154 139 150 137 129 141 132 114 200 237 250 242 211 188 212 220 168 264 209 273 59 37 102 116 134 153 170 177 179 184 186 188 190 193
133 126 132 140 136 143 153 183 171 173 148 134 123 123 135 134 160 207 230 223 223 230 201 207 243 159 228 221 179 196 154 160 156 159 149 160 174 186 190 187 188 189 189
139 135 145 145 136 143 151 172 172 123 109 133 142 136 151 150 174 212 216 226 218 226 221 192 221 288 300 337 190 227 165 170 163 158 158 167 174 178 185 189 189 190 189
138 138 142 130 137 149 160 161 182 145 130 144 126 128 141 193 188 206 168 71 268 264 270 18 67 332 324 327 244 213 188 185 182 177 159 176 177 166 167 183 189 190 191
143 142 146 146 143 154 160 155 190 196 178 183 145 123 133 209 185 199 203 168 291 348 30 52 355 296 270 273 290 269 204 189 186 169 175 173 171 174 166 164 172 189 190
151 151 158 161 155 169 172 182 197 191 197 192 164 136 152 207 201 208 343 165 266 57 39 341 313 279 262 227 295 316 265 213 182 167 175 157 159 169 160 157 162 167 174
163 162 159 165 168 177 182 187 192 200 212 200 136 137 169 192 229 195 176 267 203 155 225 294 312 311 301 286 268 298 307 297 299 167 161 165 167 163 148 161 168 167 167
169 168 172 170 173 175 180 183 199 193 228 191 152 161 179 186 188 287 176 275 285 250 178 223 279 264 291 296 287 256 297 312 302 268 190 160 165 164 166 156 160 164 166
171 167 158 160 165 166 184 190 199 202 209 205 191 161 175 184 178 170 200 272 302 337 43 241 216 278 279 292 290 244 198 180 224 323 330 197 172 168 182 182 153 153 155
171 164 157 157 161 166 183 181 208 227 213 211 177 156 164 169 185 197 186 235 248 302 340 352 4 307 315 311 306 307 303 250 229 227 272 288 276 213 186 171 163 151 155
169 162 159 156 160 169 182 191 197 216 212 227 213 172 188 188 181 192 195 210 202 239 278 275 281 288 295 305 310 312 310 303 278 243 253 256 256 251 200 157 154 157 163
Height
1494 1493 1494 1494 1494 1495 1496 1498 1499 1501 1502 1504 1505 1507 1509 1510 1512 1513 1514 1515 1517 1518 1519 1520 1520 1521 1522 1524 1525 1527 1528 1529 1530 1531 1532 1533 1534 1535 1536 1537 1538 1539 1540
1495 1495 1495 1495 1494 1496 1498 1499 1501 1502 1504 1506 1507 1509 1510 1512 1513 1515 1516 1517 1518 1519 1520 1521 1522 1522 1523 1525 1526 1527 1528 1529 1530 1531 1532 1534 1535 1536 1537 1537 1538 1539 1540
1496 1496 1496 1496 1496 1497 1500 1501 1503 1504 1506 1508 1509 1510 1512 1513 1515 1516 1517 1518 1519 1520 1521 1522 1523 1524 1524 1525 1526 1528 1529 1530 1531 1532 1533 1534 1535 1536 1537 1538 1539 1540 1541
1498 1498 1498 1499 1499 1501 1502 1503 1505 1506 1507 1509 1511 1512 1513 1515 1516 1517 1518 1520 1520 1521 1522 1523 1524 1525 1525 1526 1527 1528 1529 1530 1531 1532 1533 1535 1535 1536 1537 1538 1539 1539 1540
1501 1500 1501 1501 1502 1503 1504 1505 1507 1508 1509 1511 1512 1514 1515 1516 1517 1519 1520 1521 1521 1522 1523 1524 1524 1525 1526 1527 1527 1528 1529 1531 1532 1533 1534 1535 1536 1536 1537 1538 1539 1539 1540
1503 1503 1503 1504 1504 1505 1506 1507 1508 1510 1511 1512 1514 1515 1516 1518 1519 1520 1521 1522 1522 1523 1524 1524 1525 1526 1526 1527 1528 1528 1530 1531 1532 1533 1534 1535 1536 1536 1537 1538 1538 1539 1540
1505 1505 1505 1506 1507 1508 1509 1510 1511 1512 1513 1515 1516 1517 1518 1519 1520 1521 1522 1523 1523 1524 1524 1525 1526 1526 1527 1527 1528 1529 1530 1531 1532 1533 1534 1535 1535 1536 1537 1537 1538 1539 1539
1507 1507 1508 1509 1509 1510 1511 1512 1513 1514 1515 1516 1518 1519 1520 1520 1521 1522 1523 1524 1524 1525 1525 1526 1526 1527 1527 1527 1527 1528 1529 1530 1532 1533 1534 1534 1535 1536 1536 1537 1537 1538 1539
1509 1510 1510 1511 1511 1512 1513 1514 1515 1516 1517 1519 1519 1520 1521 1522 1523 1523 1524 1525 1526 1526 1527 1527 1527 1527 1526 1526 1526 1527 1528 1530 1531 1532 1533 1534 1535 1535 1536 1536 1537 1537 1538
1511 1512 1512 1513 1514 1515 1516 1517 1518 1518 1519 1520 1521 1522 1523 1524 1524 1525 1526 1526 1527 1527 1527 1527 1527 1527 1526 1525 1525 1526 1527 1529 1531 1532 1533 1533 1534 1535 1535 1535 1536 1536 1537
1513 1514 1515 1515 1516 1517 1518 1519 1519 1520 1521 1522 1523 1524 1524 1525 1526 1526 1527 1528 1528 1528 1528 1528 1528 1527 1526 1525 1524 1525 1527 1529 1531 1531 1532 1533 1534 1534 1534 1535 1535 1535 1536
1514 1515 1516 1517 1518 1519 1520 1520 1521 1522 1522 1523 1524 1525 1525 1527 1527 1528 1528 1528 1529 1529 1529 1529 1528 1528 1526 1526 1526 1527 1528 1529 1530 1531 1532 1533 1533 1533 1533 1534 1534 1534 1534
1515 1517 1518 1518 1519 1520 1521 1522 1523 1524 1524 1525 1525 1526 1527 1528 1528 1529 1529 1529 1529 1529 1529 1529 1529 1528 1528 1527 1527 1528 1529 1530 1531 1531 1532 1532 1532 1532 1533 1532 1533 1533 1533
1516 1518 1518 1519 1520 1521 1522 1523 1524 1525 1526 1526 1527 1528 1528 1528 1529 1529 1529 1529 1530 1530 1530 1530 1530 1529 1529 1530 1529 1530 1530 1531 1531 1531 1531 1532 1532 1532 1532 1531 1532 1532 1532
1517 1518 1519 1520 1521 1522 1523 1524 1525 1526 1527 1527 1528 1528 1528 1529 1529 1530 1530 1530 1530 1530 1530 1530 1530 1530 1530 1530 1531 1531 1531 1531 1532 1531 1531 1531 1531 1531 1531 1531 1531 1531 1531
1517 1519 1519 1520 1521 1522 1523 1524 1525 1526 1527 1528 1528 1529 1529 1529 1529 1530 1530 1530 1531 1531 1531 1531 1531 1531 1531 1531 1531 1531 1531 1532 1531 1531 1531 1531 1531 1531 1531 1531 1531 1531 1530
1518 1519 1520 1520 1521 1522 1524 1525 1526 1527 1527 1528 1528 1529 1529 1529 1529 1530 1530 1530 1530 1530 1530 1530 1531 1531 1531 1531 1531 1531 1531 1531 1531 1531 1531 1531 1531 1530 1530 1530 1530 1530 1530
1517 1518 1520 1521 1521 1522 1523 1525 1526 1527 1528 1528 1529 1529 1529 1529 1529 1529 1529 1530 1530 1530 1530 1531 1531 1531 1531 1531 1531 1531 1531 1531 1531 1531 1531 1530 1530 1530 1530 1530 1530 1530 1529
1517 1518 1519 1521 1522 1522 1523 1524 1525 1526 1527 1528 1528 1529 1529 1529 1529 1529 1529 1529 1530 1530 1530 1531 1530 1530 1531 1530 1530 1530 1530 1530 1530 1531 1530 1530 1530 1530 1529 1529 1529 1529 1529
1517 1518 1519 1520 1521 1522 1523 1524 1525 1526 1527 1527 1528 1528 1528 1528 1529 1529 1529 1529 1529 1530 1530 1530 1530 1530 1530 1530 1530 1530 1530 1530 1530 1530 1530 1529 1530 1530 1529 1529 1529 1528 1528
1516 1517 1518 1519 1521 1522 1523 1524 1525 1525 1526 1527 1527 1528 1528 1528 1528 1529 1528 1529 1529 1529 1529 1529 1529 1530 1530 1530 1530 1530 1529 1530 1530 1529 1529 1529 1529 1529 1529 1529 1528 1528 1527
1515 1516 1517 1518 1520 1521 1522 1523 1524 1525 1526 1527 1527 1527 1527 1527 1528 1528 1528 1528 1529 1529 1529 1529 1529 1529 1529 1530 1530 1529 1529 1530 1529 1529 1529 1529 1529 1529 1529 1528 1528 1527 1527
1513 1514 1516 1517 1519 1520 1521 1522 1524 1525 1525 1526 1526 1526 1526 1527 1527 1527 1527 1528 1528 1528 1528 1528 1528 1528 1528 1529 1529 1530 1529 1529 1528 1529 1528 1528 1528 1528 1528 1528 1527 1527 1526
1511 1513 1514 1516 1518 1519 1520 1522 1522 1523 1524 1525 1525 1525 1525 1526 1526 1526 1527 1527 1527 1527 1527 1527 1527 1528 1528 1528 1528 1529 1529 1528 1528 1528 1528 1527 1527 1527 1527 1527 1527 1526 1526
1509 1511 1513 1514 1516 1517 1519 1520 1521 1522 1523 1524 1524 1524 1525 1525 1525 1525 1526 1526 1526 1526 1526 1526 1526 1526 1527 1527 1527 1527 1527 1527 1527 1527 1527 1527 1527 1527 1526 1526 1526 1525 1525
1508 1510 1511 1513 1514 1516 1517 1519 1519 1520 1521 1522 1523 1523 1523 1524 1524 1524 1524 1524 1524 1524 1525 1525 1525 1525 1525 1525 1525 1526 1526 1526 1526 1526 1526 1525 1525 1525 1525 1525 1524 1524 1524